Weather History for Bellingham, WA

Change the Weather History Date:

Friday, December 6, 2013

  Actual Average Record
Temperature  
Mean Temperature 23 °F 39 °F  
Max Temperature 26 °F 45 °F 58 °F (1973)
Min Temperature 19 °F 33 °F 12 °F (1980)
Degree Days  
Heating Degree Days 42 26  
Month to date heating degree days 191 154  
Cooling Degree Days 0 0  
Month to date cooling degree days 0 0  
Year to date cooling degree days 95 42  
Moisture  
Dew Point -2 °F    
Average Humidity 35    
Maximum Humidity 40    
Minimum Humidity 29    
Precipitation  
Precipitation 0.00 in 0.16 in 1.27 in (1987)
Month to date precipitation 0.73 0.98  
Year to date precipitation 28.40 32.59  
Sea Level Pressure  
Sea Level Pressure 30.29 in    
Wind  
Wind Speed 21 mph (NNE)    
Max Wind Speed 31 mph    
Max Gust Speed 44 mph    
Visibility 10 miles    
Events      
T = Trace of Precipitation, MM = Missing Value Source: NWS Daily Summary

Daily Weather History Graph

Daily Weather History Graph

Search for Another Location

Airport:

Trip Planner

Search our weather history database for the weather conditions in past years. The results will help you decide how hot, cold, wet, or windy it might be!

Date:

Astronomy

Dec. 06, 2013 Rise Set
Actual Time 7:48 AM PST 4:14 PM PST
Civil Twilight 7:11 AM PST 4:50 PM PST
Nautical Twilight 6:31 AM PST 5:30 PM PST
Astronomical Twilight 5:53 AM PST 6:09 PM PST
Moon 10:45 AM PST (12/6) 9:07 PM PST (12/6)
Length of Visible Light 9h 39m
Length of Day
8h 25m
Waxing Crescent, 20% of the Moon is Illuminated
Dec 6
Waxing Crescent
Dec 9
First Quarter
Dec 17
Full
Dec 25
Last Quarter
Jan 1
New

Hourly Weather History & Observations

Time (PST) Temp. Windchill Dew Point Humidity Pressure Visibility Wind Dir Wind Speed Gust Speed Precip Events Conditions
12:53 AM 24.1 °F 11.5 °F 1.9 °F 38% 30.26 in 10.0 mi NNE 15.0 mph 23.0 mph N/A   Clear
1:53 AM 24.1 °F 10.6 °F -0.0 °F 35% 30.27 in 10.0 mi NNE 17.3 mph 27.6 mph N/A   Clear
2:53 AM 23.0 °F 8.3 °F -0.0 °F 37% 30.27 in 10.0 mi NNE 19.6 mph 27.6 mph N/A   Clear
3:53 AM 23.0 °F 8.3 °F -0.9 °F 35% 30.27 in 10.0 mi NNE 19.6 mph 29.9 mph N/A   Clear
4:53 AM 21.9 °F 6.5 °F -0.9 °F 37% 30.27 in 10.0 mi NNE 20.7 mph 32.2 mph N/A   Clear
5:53 AM 21.9 °F 5.8 °F -2.0 °F 35% 30.27 in 10.0 mi NNE 23.0 mph 36.8 mph N/A   Clear
6:53 AM 21.0 °F 5.4 °F -2.0 °F 36% 30.28 in 10.0 mi NNE 20.7 mph 32.2 mph N/A   Clear
7:53 AM 21.0 °F 5.7 °F -2.0 °F 36% 30.29 in 10.0 mi NNE 19.6 mph 32.2 mph N/A   Clear
8:53 AM 21.9 °F 8.2 °F -2.0 °F 35% 30.29 in 10.0 mi NNE 16.1 mph 33.4 mph N/A   Clear
9:53 AM 23.0 °F 6.6 °F -2.9 °F 32% 30.30 in 10.0 mi NNE 25.3 mph 38.0 mph N/A   Clear
10:53 AM 24.1 °F 9.0 °F -2.9 °F 31% 30.30 in 10.0 mi NNE 21.9 mph 35.7 mph N/A   Clear
11:53 AM 26.1 °F 10.7 °F -2.0 °F 30% 30.30 in 10.0 mi NNE 25.3 mph 40.3 mph N/A   Clear
12:53 PM 26.1 °F 11.0 °F -2.0 °F 30% 30.28 in 10.0 mi NNE 24.2 mph 35.7 mph N/A   Clear
1:53 PM 25.0 °F 11.3 °F -2.9 °F 30% 30.27 in 10.0 mi NNE 18.4 mph 41.4 mph N/A   Clear
2:53 PM 25.0 °F 9.5 °F -2.0 °F 31% 30.27 in 10.0 mi NNE 24.2 mph 39.1 mph N/A   Clear
3:53 PM 23.0 °F 8.7 °F -2.9 °F 32% 30.27 in 10.0 mi NNE 18.4 mph 36.8 mph N/A   Clear
4:53 PM 21.9 °F 5.1 °F -2.0 °F 35% 30.28 in 10.0 mi NNE 25.3 mph 35.7 mph N/A   Clear
5:53 PM 21.0 °F 3.6 °F -2.9 °F 35% 30.30 in 10.0 mi NNE 26.5 mph 43.7 mph N/A   Clear
6:53 PM 21.0 °F 4.3 °F -4.0 °F 33% 30.31 in 10.0 mi NNE 24.2 mph 38.0 mph N/A   Clear
7:53 PM 19.9 °F 2.8 °F -4.0 °F 35% 30.32 in 10.0 mi NNE 24.2 mph 35.7 mph N/A   Clear
8:53 PM 19.9 °F 5.2 °F -4.0 °F 35% 30.32 in 10.0 mi NNE 17.3 mph 35.7 mph N/A   Clear
9:53 PM 19.9 °F 2.8 °F -4.0 °F 35% 30.34 in 10.0 mi NNE 24.2 mph 39.1 mph N/A   Clear
10:53 PM 19.9 °F 3.2 °F -4.0 °F 35% 30.35 in 10.0 mi NNE 23.0 mph 38.0 mph N/A   Clear
11:53 PM 19.0 °F 2.7 °F -5.1 °F 34% 30.35 in 10.0 mi NNE 20.7 mph 39.1 mph N/A   Clear